Weather History for Sturgis, MI

Change the Weather History Date:

Saturday, December 1, 2012

  Actual Average (KHAI) Record (KHAI)
Temperature  
Mean Temperature 45 °F -  
Max Temperature 57 °F 41 °F 60 °F (1962)
Min Temperature 33 °F 26 °F 5 °F (1955)
Degree Days  
Heating Degree Days 20    
Moisture  
Dew Point 41 °F    
Average Humidity 85    
Maximum Humidity 100    
Minimum Humidity 67    
Precipitation  
Precipitation 0.00 in - - ()
Sea Level Pressure  
Sea Level Pressure 30.10 in    
Wind  
Wind Speed 8 mph (SSE)    
Max Wind Speed 17 mph    
Max Gust Speed 25 mph    
Visibility 5 miles    
Events Fog , Rain    
Averages and records for this station are not official NWS values.
T = Trace of Precipitation, MM = Missing Value Source: NWS Daily Summary

Daily Weather History Graph

Daily Weather History Graph

Search for Another Location

Airport:

Trip Planner

Search our weather history database for the weather conditions in past years. The results will help you decide how hot, cold, wet, or windy it might be!

Date:

Astronomy

Dec. 01, 2012 Rise Set
Actual Time 7:50 AM EST 5:11 PM EST
Civil Twilight 7:19 AM EST 5:42 PM EST
Nautical Twilight 6:44 AM EST 6:17 PM EST
Astronomical Twilight 6:10 AM EST 6:50 PM EST
Moon 8:01 PM EST (12/1) 10:02 AM EST (12/1)
Length of Visible Light 10h 23m
Length of Day
9h 21m
Waning Gibbous, 92% of the Moon is Illuminated
Dec 1
Waning Gibbous
Dec 6
Last Quarter
Dec 13
New
Dec 20
First Quarter
Dec 28
Full

Hourly Weather History & Observations

Time (EST) Temp. Windchill Dew Point Humidity Pressure Visibility Wind Dir Wind Speed Gust Speed Precip Events Conditions
12:15 AM 35.6 °F 31.7 °F 30.2 °F 81% 30.17 in 7.0 mi East 4.6 mph - N/A   Clear
12:35 AM 35.6 °F 29.9 °F 32.0 °F 87% 30.17 in 7.0 mi ESE 6.9 mph - N/A   Clear
12:55 AM 33.8 °F 28.6 °F 30.2 °F 87% 30.18 in 7.0 mi East 5.8 mph - N/A   Clear
1:15 AM 33.8 °F 27.7 °F 32.0 °F 93% 30.17 in 5.0 mi ESE 6.9 mph - N/A   Clear
1:35 AM 33.8 °F 28.6 °F 32.0 °F 93% 30.17 in 4.0 mi ESE 5.8 mph - N/A   Clear
1:55 AM 33.8 °F 28.6 °F 32.0 °F 93% 30.17 in 3.0 mi East 5.8 mph - N/A   Scattered Clouds
2:15 AM 35.6 °F 30.7 °F 33.8 °F 93% 30.18 in 2.0 mi ESE 5.8 mph - N/A   Overcast
2:34 AM 35.6 °F 29.9 °F 33.8 °F 93% 30.17 in 2.0 mi ESE 6.9 mph - N/A   Overcast
3:14 AM 35.6 °F 29.9 °F 35.6 °F 100% 30.18 in 2.0 mi ESE 6.9 mph - N/A   Overcast
3:55 AM 35.6 °F 29.9 °F 35.6 °F 100% 30.17 in 1.5 mi ESE 6.9 mph - N/A   Overcast
4:14 AM 35.6 °F 28.0 °F 35.6 °F 100% 30.17 in 1.2 mi ESE 10.4 mph - N/A   Overcast
4:35 AM 35.6 °F 31.7 °F 35.6 °F 100% 30.18 in 1.2 mi ESE 4.6 mph - N/A   Overcast
4:55 AM 35.6 °F 29.9 °F 35.6 °F 100% 30.18 in 1.0 mi SE 6.9 mph - N/A   Overcast
5:14 AM 35.6 °F 31.7 °F 35.6 °F 100% 30.19 in 1.0 mi ESE 4.6 mph - N/A   Overcast
5:35 AM 35.6 °F 29.2 °F 35.6 °F 100% 30.19 in 0.8 mi SE 8.1 mph - N/A   Overcast
5:55 AM 35.6 °F 31.7 °F 35.6 °F 100% 30.18 in 0.5 mi ESE 4.6 mph - N/A Fog Fog
6:14 AM 35.6 °F 30.7 °F 35.6 °F 100% 30.17 in 0.5 mi SE 5.8 mph - N/A Fog Fog
6:35 AM 35.6 °F 29.9 °F 35.6 °F 100% 30.17 in 0.2 mi SE 6.9 mph - N/A Fog Fog
7:15 AM 35.6 °F 29.9 °F 35.6 °F 100% 30.18 in 0.2 mi SE 6.9 mph - N/A Fog Fog
7:35 AM 35.6 °F 29.2 °F 35.6 °F 100% 30.17 in 0.2 mi SE 8.1 mph - N/A Fog Fog
7:55 AM 35.6 °F 29.9 °F 35.6 °F 100% 30.18 in 0.2 mi SE 6.9 mph - N/A Fog Fog
8:15 AM 35.6 °F 30.7 °F 35.6 °F 100% 30.19 in 0.2 mi SE 5.8 mph - N/A Fog Fog
8:35 AM 37.4 °F 32.8 °F 35.6 °F 93% 30.19 in 0.2 mi SE 5.8 mph - N/A Fog Fog
9:15 AM 37.4 °F 32.1 °F 35.6 °F 93% 30.19 in 0.5 mi SE 6.9 mph - N/A Fog Fog
9:35 AM 37.4 °F 32.1 °F 37.4 °F 100% 30.18 in 0.5 mi SE 6.9 mph - N/A Fog Fog
9:55 AM 37.4 °F 32.1 °F 37.4 °F 100% 30.17 in 0.8 mi SE 6.9 mph - N/A   Overcast
10:15 AM 37.4 °F 32.1 °F 37.4 °F 100% 30.18 in 1.0 mi SSE 6.9 mph - N/A   Overcast
10:35 AM 39.2 °F 33.0 °F 37.4 °F 93% 30.17 in 1.8 mi SSE 9.2 mph - N/A   Overcast
10:55 AM 41.0 °F 35.8 °F 39.2 °F 93% 30.17 in 2.5 mi South 8.1 mph - N/A   Mostly Cloudy
11:15 AM 42.8 °F 37.5 °F 41.0 °F 93% 30.16 in 3.0 mi SSE 9.2 mph - N/A   Scattered Clouds
11:35 AM 44.6 °F 39.7 °F 39.2 °F 81% 30.15 in 4.0 mi SSE 9.2 mph - N/A   Clear
11:55 AM 44.6 °F 39.2 °F 41.0 °F 87% 30.13 in 4.0 mi SSE 10.4 mph - N/A   Clear
12:14 PM 46.4 °F 41.9 °F 42.8 °F 87% 30.11 in 5.0 mi South 9.2 mph - N/A   Haze
12:35 PM 48.2 °F - 42.8 °F 82% 30.10 in 5.0 mi South 10.4 mph - N/A   Haze
1:14 PM 51.8 °F - 44.6 °F 76% 30.08 in 7.0 mi SSE 8.1 mph - N/A   Clear
1:35 PM 51.8 °F - 44.6 °F 76% 30.08 in 7.0 mi South 9.2 mph - N/A   Clear
1:55 PM 53.6 °F - 44.6 °F 72% 30.08 in 7.0 mi South 10.4 mph - N/A   Scattered Clouds
2:15 PM 53.6 °F - 44.6 °F 72% 30.07 in 7.0 mi South 10.4 mph - N/A   Scattered Clouds
2:35 PM 53.6 °F - 46.4 °F 77% 30.06 in 7.0 mi South 6.9 mph - N/A   Clear
3:15 PM 55.4 °F - 46.4 °F 72% 30.05 in 7.0 mi South 8.1 mph - N/A   Scattered Clouds
3:35 PM 53.6 °F - 46.4 °F 77% 30.05 in 7.0 mi SSE 8.1 mph - N/A   Mostly Cloudy
4:15 PM 55.4 °F - 46.4 °F 72% 30.04 in 7.0 mi South 8.1 mph - N/A   Mostly Cloudy
4:35 PM 55.4 °F - 48.2 °F 77% 30.04 in 7.0 mi South 8.1 mph - N/A   Mostly Cloudy
4:55 PM 55.4 °F - 48.2 °F 77% 30.04 in 7.0 mi South 9.2 mph - N/A   Mostly Cloudy
5:15 PM 55.4 °F - 48.2 °F 77% 30.03 in 7.0 mi South 6.9 mph - N/A   Scattered Clouds
5:35 PM 53.6 °F - 48.2 °F 82% 30.03 in 7.0 mi South 8.1 mph - N/A   Scattered Clouds
5:55 PM 53.6 °F - 48.2 °F 82% 30.03 in 7.0 mi South 8.1 mph - N/A   Scattered Clouds
6:15 PM 55.4 °F - 48.2 °F 77% 30.02 in 10.0 mi South 8.1 mph - N/A   Mostly Cloudy
6:54 PM 55.4 °F - 48.2 °F 77% 30.01 in 10.0 mi South 11.5 mph - N/A   Scattered Clouds
7:15 PM 55.4 °F - 48.2 °F 77% 30.01 in 10.0 mi South 15.0 mph 19.6 mph N/A   Overcast
7:34 PM 57.2 °F - 48.2 °F 72% 30.00 in 10.0 mi South 13.8 mph - N/A   Overcast
7:55 PM 57.2 °F - 48.2 °F 72% 30.00 in 10.0 mi South 12.7 mph 20.7 mph N/A   Overcast
8:15 PM 57.2 °F - 46.4 °F 67% 30.00 in 10.0 mi South 15.0 mph - N/A   Overcast
8:34 PM 57.2 °F - 46.4 °F 67% 30.00 in 10.0 mi South 13.8 mph 20.7 mph N/A   Mostly Cloudy
8:55 PM 57.2 °F - 46.4 °F 67% 29.99 in 10.0 mi South 13.8 mph 21.9 mph N/A   Overcast
9:15 PM 57.2 °F - 46.4 °F 67% 29.99 in 10.0 mi South 16.1 mph - N/A   Overcast
9:35 PM 57.2 °F - 46.4 °F 67% 29.99 in 10.0 mi SSW 16.1 mph - N/A   Overcast
9:55 PM 57.2 °F - 46.4 °F 67% 29.99 in 10.0 mi SSW 17.3 mph 23.0 mph N/A   Overcast
10:15 PM 57.2 °F - 46.4 °F 67% 29.99 in 10.0 mi SSW 17.3 mph 23.0 mph N/A   Overcast
10:35 PM 57.2 °F - 46.4 °F 67% 29.99 in 10.0 mi SSW 16.1 mph 25.3 mph N/A   Overcast
10:55 PM 55.4 °F - 46.4 °F 72% 29.99 in 10.0 mi SSW 17.3 mph 24.2 mph N/A Rain Light Rain
11:15 PM 55.4 °F - 46.4 °F 72% 29.99 in 10.0 mi SSW 17.3 mph 20.7 mph N/A   Overcast
11:35 PM 55.4 °F - 46.4 °F 72% 29.98 in 10.0 mi SSW 13.8 mph 23.0 mph N/A   Overcast
11:55 PM 55.4 °F - 46.4 °F 72% 29.98 in 10.0 mi SSW 16.1 mph 21.9 mph N/A   Overcast